contact:dominique.lefevre@mio.osupytheas.fr, maurice.libes@osupytheas.fr, didier.mallarino@osupytheas.fr
Project:EMSO http://www.emso-fr.org/EMSO-France
Depth: 2436.0 m
Title:EMSO Ligure Ouest : Data MII capteur AQUADOPP
Date,Latitude,Longitude,X_East,Y_North,Z_Up,Amplitude_X,Amplitude_Y,Amplitude_Z,Batterie,SoundSpeed,Heading,Pitch,Roll,Pressure,TIS,Speed,Direction
, degrees North, degrees East, m.s-1, m.s-1,m.s-1, 1, 1, 1, Volt, m.s-1, degree, degree, degree, dbar, degree_C, m.s-1, degree
2021-05-24T00:04:03,42.805,6.029,-0.001,-0.029,-0.02,99.0,100.0,101.0,13.4,1505.2,326.4,-0.8,1.8,2470.382,13.28,0.029,182.0
2021-05-24T00:07:03,42.805,6.029,-0.014,-0.024,-0.019,100.0,100.0,100.0,13.4,1505.2,324.3,-0.7,1.8,2470.406,13.28,0.027,210.3
2021-05-24T00:10:03,42.805,6.029,-0.011,-0.027,-0.022,101.0,101.0,100.0,13.3,1505.2,326.8,-0.8,1.8,2470.394,13.28,0.029,202.2
2021-05-24T00:13:03,42.805,6.029,-0.031,-0.025,-0.027,102.0,100.0,100.0,13.3,1505.2,327.1,-0.8,1.8,2470.365,13.28,0.039,231.1
2021-05-24T00:16:03,42.805,6.029,-0.034,-0.03,-0.033,101.0,101.0,101.0,13.4,1505.2,326.0,-0.8,1.9,2470.407,13.28,0.045,228.6
2021-05-24T00:19:03,42.805,6.029,-0.028,-0.03,-0.033,100.0,101.0,100.0,13.4,1505.2,328.7,-0.7,1.8,2470.38,13.28,0.041,223.0
2021-05-24T00:22:03,42.805,6.029,-0.015,-0.025,-0.012,98.0,101.0,101.0,13.4,1505.2,329.8,-0.8,1.8,2470.355,13.28,0.029,211.0
2021-05-24T00:25:03,42.805,6.029,-0.003,-0.033,-0.016,101.0,100.0,101.0,13.4,1505.2,326.1,-0.7,1.8,2470.344,13.28,0.033,185.2
2021-05-24T00:28:03,42.805,6.029,-0.005,-0.021,-0.012,101.0,101.0,100.0,13.3,1505.2,328.1,-0.8,1.8,2470.369,13.28,0.021,193.4
2021-05-24T00:31:03,42.805,6.029,-0.017,-0.005,-0.016,101.0,101.0,99.0,13.4,1505.2,329.5,-0.7,1.8,2470.365,13.28,0.017,253.6
2021-05-24T00:34:03,42.805,6.029,-0.019,-0.027,-0.012,101.0,101.0,101.0,13.4,1505.2,328.8,-0.8,1.9,2470.344,13.28,0.033,215.1
2021-05-24T00:37:03,42.805,6.029,-0.014,-0.008,-0.014,100.0,102.0,99.0,13.3,1505.2,328.7,-0.7,1.8,2470.365,13.28,0.016,240.3
2021-05-24T00:40:03,42.805,6.029,-0.007,-0.021,-0.037,102.0,99.0,101.0,13.3,1505.2,324.9,-0.7,1.8,2470.37,13.28,0.022,198.4
2021-05-24T00:43:03,42.805,6.029,0.0,-0.036,0.018,100.0,99.0,100.0,13.4,1505.2,325.2,-0.7,1.9,2470.364,13.28,0.036,180.0
2021-05-24T00:46:03,42.805,6.029,-0.015,-0.006,0.006,100.0,102.0,100.0,13.3,1505.2,327.2,-0.8,1.9,2470.398,13.28,0.016,248.2
2021-05-24T00:49:03,42.805,6.029,-0.006,-0.031,-0.004,100.0,100.0,101.0,13.4,1505.2,328.1,-0.8,1.8,2470.368,13.28,0.031,191.0
2021-05-24T00:52:03,42.805,6.029,-0.011,-0.024,-0.017,100.0,98.0,101.0,13.4,1505.2,324.6,-0.7,1.8,2470.346,13.28,0.026,204.6
2021-05-24T00:55:03,42.805,6.029,-0.006,-0.023,-0.012,102.0,102.0,100.0,13.4,1505.2,326.1,-0.7,1.9,2470.365,13.28,0.023,194.6
2021-05-24T00:58:03,42.805,6.029,-0.004,-0.014,0.008,101.0,100.0,99.0,13.4,1505.2,329.8,-0.7,1.7,2470.335,13.28,0.014,195.9
2021-05-24T01:04:03,42.805,6.029,-0.032,-0.003,-0.028,99.0,99.0,102.0,13.4,1505.2,329.3,-0.8,1.8,2470.432,13.28,0.032,264.6
2021-05-24T01:07:03,42.805,6.029,0.015,-0.022,0.032,102.0,99.0,100.0,13.4,1505.2,326.7,-0.7,1.8,2470.394,13.28,0.026,145.7
2021-05-24T01:10:03,42.805,6.029,-0.006,-0.019,-0.019,99.0,102.0,100.0,13.4,1505.2,325.9,-0.8,1.8,2470.391,13.28,0.019,197.5
2021-05-24T01:13:03,42.805,6.029,-0.006,-0.034,-0.012,101.0,101.0,100.0,13.4,1505.2,329.3,-0.7,1.8,2470.404,13.28,0.034,190.0
2021-05-24T01:16:03,42.805,6.029,0.016,-0.022,-0.008,101.0,99.0,100.0,13.4,1505.2,325.4,-0.7,1.8,2470.389,13.28,0.027,144.0
2021-05-24T01:19:03,42.805,6.029,-0.005,-0.009,0.024,99.0,101.0,101.0,13.4,1505.2,326.5,-0.8,1.8,2470.386,13.28,0.01,209.1
2021-05-24T01:22:03,42.805,6.029,-0.002,-0.032,-0.012,99.0,103.0,100.0,13.3,1505.2,327.1,-0.7,1.8,2470.451,13.28,0.032,183.6
2021-05-24T01:25:03,42.805,6.029,-0.013,-0.025,0.032,100.0,101.0,100.0,13.4,1505.2,327.9,-0.8,1.8,2470.426,13.28,0.028,207.5
2021-05-24T01:28:03,42.805,6.029,-0.036,-0.017,-0.017,101.0,100.0,100.0,13.4,1505.2,325.6,-0.7,1.8,2470.402,13.28,0.039,244.7
2021-05-24T01:31:03,42.805,6.029,0.0,-0.019,-0.028,101.0,98.0,100.0,13.4,1505.2,326.5,-0.7,1.8,2470.383,13.28,0.019,180.0
2021-05-24T01:34:03,42.805,6.029,0.004,-0.021,0.008,102.0,100.0,99.0,13.4,1505.2,324.3,-0.7,1.8,2470.388,13.28,0.021,169.2
2021-05-24T01:37:03,42.805,6.029,-0.007,-0.027,-0.02,100.0,100.0,99.0,13.4,1505.2,326.7,-0.8,1.8,2470.402,13.28,0.027,194.5
2021-05-24T01:40:03,42.805,6.029,0.001,0.005,0.026,100.0,101.0,99.0,13.4,1505.2,324.2,-0.7,1.8,2470.401,13.28,0.005,11.3
2021-05-24T01:43:03,42.805,6.029,-0.036,-0.017,-0.003,100.0,102.0,98.0,13.4,1505.2,329.5,-0.7,1.8,2470.421,13.28,0.039,244.7
2021-05-24T01:46:03,42.805,6.029,-0.011,-0.006,0.003,100.0,101.0,100.0,13.3,1505.2,326.8,-0.8,1.8,2470.412,13.28,0.012,241.4
2021-05-24T01:49:03,42.805,6.029,0.002,-0.015,0.0,98.0,101.0,101.0,13.4,1505.2,328.8,-0.7,1.8,2470.397,13.28,0.015,172.4
2021-05-24T01:52:03,42.805,6.029,-0.013,-0.006,0.017,100.0,100.0,101.0,13.4,1505.2,324.8,-0.7,1.8,2470.401,13.28,0.014,245.2
2021-05-24T01:55:03,42.805,6.029,0.005,-0.028,-0.017,102.0,101.0,99.0,13.3,1505.2,325.5,-0.8,1.8,2470.411,13.28,0.028,169.9
2021-05-24T01:58:03,42.805,6.029,0.0,-0.033,-0.01,100.0,99.0,100.0,13.4,1505.2,327.2,-0.8,1.8,2470.375,13.28,0.033,180.0
2021-05-24T02:04:03,42.805,6.029,-0.01,-0.016,0.0,101.0,99.0,100.0,13.4,1505.2,328.5,-0.7,1.8,2470.479,13.28,0.018,212.0
2021-05-24T02:07:03,42.805,6.029,-0.014,-0.024,-0.041,102.0,100.0,99.0,13.4,1505.2,326.3,-0.8,1.8,2470.444,13.28,0.027,210.3
2021-05-24T02:10:03,42.805,6.029,-0.016,-0.01,-0.012,100.0,101.0,99.0,13.4,1505.2,327.4,-0.7,1.8,2470.421,13.28,0.018,238.0
2021-05-24T02:13:03,42.805,6.029,-0.01,-0.025,-0.001,100.0,101.0,98.0,13.4,1505.2,324.4,-0.8,1.8,2470.43,13.28,0.026,201.8
2021-05-24T02:16:03,42.805,6.029,-0.015,-0.024,-0.015,100.0,100.0,100.0,13.3,1505.2,325.9,-0.8,1.8,2470.431,13.28,0.028,212.0
2021-05-24T02:19:03,42.805,6.029,-0.044,-0.021,-0.025,99.0,101.0,101.0,13.4,1505.2,325.9,-0.8,1.8,2470.469,13.28,0.048,244.5
2021-05-24T02:22:03,42.805,6.029,-0.005,-0.014,0.011,99.0,101.0,100.0,13.4,1505.2,327.2,-0.7,1.8,2470.505,13.28,0.014,199.6
2021-05-24T02:25:03,42.805,6.029,-0.003,-0.033,-0.025,99.0,102.0,98.0,13.4,1505.2,328.9,-0.8,1.8,2470.448,13.28,0.033,185.2
2021-05-24T02:28:03,42.805,6.029,0.006,-0.027,0.006,100.0,105.0,99.0,13.4,1505.2,324.1,-0.8,1.8,2470.433,13.28,0.027,167.5
2021-05-24T02:31:03,42.805,6.029,0.0,-0.016,0.009,99.0,101.0,100.0,13.3,1505.2,326.1,-0.8,1.8,2470.493,13.28,0.016,180.0
2021-05-24T02:34:03,42.805,6.029,0.004,-0.02,0.0,100.0,100.0,99.0,13.3,1505.2,325.9,-0.7,1.8,2470.448,13.28,0.02,168.7
2021-05-24T02:37:03,42.805,6.029,0.006,-0.026,0.015,100.0,100.0,100.0,13.4,1505.2,326.1,-0.7,1.8,2470.494,13.28,0.026,167.0
2021-05-24T02:40:03,42.805,6.029,0.012,-0.033,-0.013,101.0,101.0,100.0,13.4,1505.2,327.8,-0.8,1.8,2470.45,13.28,0.035,160.0
2021-05-24T02:43:03,42.805,6.029,0.007,-0.017,0.005,99.0,100.0,100.0,13.4,1505.2,327.1,-0.8,1.8,2470.491,13.28,0.018,157.6
2021-05-24T02:46:03,42.805,6.029,0.0,-0.016,0.014,99.0,100.0,101.0,13.3,1505.2,328.2,-0.7,1.8,2470.465,13.28,0.016,180.0
2021-05-24T02:49:03,42.805,6.029,-0.011,-0.036,0.021,99.0,100.0,100.0,13.4,1505.2,325.0,-0.8,1.8,2470.463,13.28,0.037,197.0
2021-05-24T02:52:03,42.805,6.029,-0.015,-0.003,0.0,99.0,99.0,101.0,13.4,1505.2,327.0,-0.7,1.8,2470.491,13.28,0.015,258.7
2021-05-24T02:55:03,42.805,6.029,-0.007,-0.033,0.0,101.0,99.0,100.0,13.4,1505.2,329.1,-0.8,1.8,2470.453,13.28,0.033,192.0
2021-05-24T02:58:03,42.805,6.029,-0.017,-0.003,-0.021,100.0,101.0,102.0,13.4,1505.2,327.6,-0.7,1.8,2470.477,13.28,0.017,260.0
2021-05-24T03:04:03,42.805,6.029,-0.015,-0.015,-0.006,101.0,100.0,100.0,13.4,1505.2,329.3,-0.8,1.8,2470.524,13.28,0.021,225.0
2021-05-24T03:07:03,42.805,6.029,-0.001,-0.039,-0.032,100.0,101.0,99.0,13.3,1505.2,327.5,-0.8,1.8,2470.514,13.28,0.039,181.5
2021-05-24T03:10:03,42.805,6.029,-0.007,-0.015,0.006,101.0,101.0,99.0,13.4,1505.2,326.8,-0.7,1.8,2470.497,13.28,0.016,205.0
2021-05-24T03:13:03,42.805,6.029,-0.011,-0.016,0.002,99.0,101.0,100.0,13.3,1505.2,329.3,-0.7,1.8,2470.528,13.28,0.019,214.5
2021-05-24T03:16:03,42.805,6.029,0.005,-0.02,0.013,100.0,102.0,100.0,13.4,1505.2,327.5,-0.8,1.8,2470.506,13.28,0.02,166.0
2021-05-24T03:19:03,42.805,6.029,-0.026,-0.009,-0.014,100.0,99.0,100.0,13.4,1505.2,329.3,-0.7,1.8,2470.521,13.28,0.027,250.9
2021-05-24T03:22:03,42.805,6.029,0.001,-0.018,0.002,101.0,100.0,100.0,13.4,1505.2,328.6,-0.8,1.8,2470.504,13.28,0.018,176.8
2021-05-24T03:25:03,42.805,6.029,0.013,-0.018,-0.011,99.0,101.0,101.0,13.4,1505.2,326.7,-0.7,1.9,2470.509,13.28,0.022,144.2
2021-05-24T03:28:03,42.805,6.029,0.0,-0.034,0.004,103.0,101.0,99.0,13.4,1505.2,327.9,-0.7,1.8,2470.543,13.28,0.034,180.0
2021-05-24T03:31:03,42.805,6.029,-0.013,-0.022,0.012,104.0,102.0,99.0,13.4,1505.2,325.6,-0.7,1.8,2470.508,13.28,0.025,210.6
2021-05-24T03:34:03,42.805,6.029,0.011,-0.013,0.019,98.0,100.0,101.0,13.4,1505.2,327.0,-0.8,1.8,2470.508,13.28,0.017,139.8
2021-05-24T03:37:03,42.805,6.029,0.004,-0.021,0.017,101.0,102.0,98.0,13.3,1505.2,328.2,-0.7,1.8,2470.513,13.28,0.021,169.2
2021-05-24T03:40:03,42.805,6.029,-0.011,-0.031,-0.03,101.0,100.0,100.0,13.4,1505.2,327.2,-0.8,1.8,2470.508,13.28,0.032,199.5
2021-05-24T03:43:03,42.805,6.029,0.006,-0.018,0.0,101.0,100.0,99.0,13.4,1505.2,327.5,-0.7,1.8,2470.476,13.28,0.018,161.6
2021-05-24T03:46:03,42.805,6.029,0.008,-0.011,0.006,100.0,100.0,101.0,13.4,1505.2,326.1,-0.7,1.8,2470.526,13.28,0.013,144.0
2021-05-24T03:49:03,42.805,6.029,-0.003,-0.016,0.01,99.0,101.0,100.0,13.4,1505.2,324.3,-0.8,1.8,2470.512,13.28,0.016,190.6
2021-05-24T03:52:03,42.805,6.029,0.002,-0.001,0.001,101.0,101.0,99.0,13.4,1505.2,326.1,-0.7,1.8,2470.518,13.28,0.002,116.6
2021-05-24T03:55:03,42.805,6.029,-0.01,-0.012,0.0,103.0,98.0,101.0,13.4,1505.2,326.4,-0.7,1.8,2470.538,13.28,0.015,219.8
2021-05-24T03:58:03,42.805,6.029,0.004,0.001,0.024,100.0,99.0,100.0,13.3,1505.2,326.9,-0.8,1.8,2470.513,13.28,0.004,76.0
2021-05-24T04:04:03,42.805,6.029,0.005,-0.007,0.002,101.0,113.0,100.0,13.3,1505.2,324.3,-0.8,1.8,2470.552,13.28,0.008,144.5
2021-05-24T04:07:03,42.805,6.029,-0.012,-0.013,0.016,99.0,100.0,100.0,13.3,1505.2,328.2,-0.8,1.8,2470.5,13.28,0.017,222.7
2021-05-24T04:10:03,42.805,6.029,0.008,0.005,0.029,101.0,100.0,100.0,13.4,1505.2,329.4,-0.7,1.8,2470.524,13.28,0.009,58.0
2021-05-24T04:13:03,42.805,6.029,0.019,-0.036,0.006,103.0,101.0,98.0,13.3,1505.2,324.4,-0.8,1.9,2470.56,13.28,0.04,152.2
2021-05-24T04:16:03,42.805,6.029,0.0,-0.013,0.016,101.0,100.0,99.0,13.3,1505.2,324.8,-0.8,1.8,2470.558,13.28,0.013,180.0
2021-05-24T04:19:03,42.805,6.029,0.007,-0.016,-0.014,100.0,100.0,100.0,13.4,1505.2,327.2,-0.7,1.8,2470.547,13.28,0.017,156.4
2021-05-24T04:22:03,42.805,6.029,-0.011,-0.039,-0.044,100.0,99.0,101.0,13.4,1505.2,327.7,-0.8,1.8,2470.503,13.28,0.04,195.7
2021-05-24T04:25:03,42.805,6.029,-0.016,-0.031,-0.017,99.0,103.0,100.0,13.4,1505.2,327.6,-0.8,1.8,2470.499,13.28,0.034,207.3
2021-05-24T04:28:03,42.805,6.029,0.004,-0.021,0.006,100.0,99.0,100.0,13.4,1505.2,327.0,-0.8,1.8,2470.514,13.28,0.021,169.2
2021-05-24T04:31:03,42.805,6.029,0.018,-0.038,-0.001,101.0,100.0,100.0,13.4,1505.2,326.4,-0.8,1.8,2470.509,13.28,0.042,154.7
2021-05-24T04:34:03,42.805,6.029,-0.033,-0.021,-0.031,100.0,99.0,100.0,13.3,1505.2,329.3,-0.8,1.8,2470.533,13.28,0.039,237.5
2021-05-24T04:37:03,42.805,6.029,0.014,-0.041,0.004,101.0,102.0,99.0,13.4,1505.2,325.6,-0.8,1.9,2470.532,13.28,0.043,161.1
2021-05-24T04:40:03,42.805,6.029,0.007,-0.034,-0.028,100.0,100.0,102.0,13.4,1505.2,325.5,-0.8,1.8,2470.522,13.28,0.034,168.4
2021-05-24T04:43:03,42.805,6.029,0.015,-0.015,-0.012,101.0,102.0,100.0,13.4,1505.2,325.5,-0.8,1.8,2470.546,13.28,0.021,135.0
2021-05-24T04:46:03,42.805,6.029,-0.008,-0.013,0.003,100.0,100.0,99.0,13.3,1505.2,326.5,-0.8,1.8,2470.536,13.28,0.015,211.6
2021-05-24T04:49:03,42.805,6.029,-0.01,-0.014,0.007,100.0,102.0,99.0,13.3,1505.2,326.5,-0.7,1.8,2470.553,13.28,0.017,215.5
2021-05-24T04:52:03,42.805,6.029,-0.019,-0.022,0.0,101.0,100.0,100.0,13.4,1505.2,328.2,-0.8,1.8,2470.547,13.28,0.029,220.8
2021-05-24T04:55:03,42.805,6.029,-0.001,-0.012,-0.004,100.0,99.0,100.0,13.3,1505.2,325.7,-0.8,1.8,2470.52,13.28,0.012,184.8
2021-05-24T04:58:03,42.805,6.029,0.007,-0.023,0.0,100.0,100.0,99.0,13.3,1505.2,324.3,-0.7,1.8,2470.523,13.28,0.024,163.1
2021-05-24T05:04:03,42.805,6.029,-0.023,-0.016,-0.002,100.0,100.0,99.0,13.4,1505.2,329.2,-0.8,1.8,2470.572,13.28,0.028,235.2
2021-05-24T05:07:03,42.805,6.029,-0.01,-0.018,0.027,100.0,100.0,99.0,13.3,1505.2,328.2,-0.8,1.8,2470.54,13.28,0.02,209.1
2021-05-24T05:10:03,42.805,6.029,0.02,-0.031,-0.02,102.0,99.0,99.0,13.4,1505.2,327.4,-0.8,1.8,2470.573,13.28,0.036,147.2
2021-05-24T05:13:03,42.805,6.029,-0.02,-0.013,0.003,101.0,98.0,101.0,13.4,1505.2,327.9,-0.8,1.9,2470.593,13.28,0.023,237.0
2021-05-24T05:16:03,42.805,6.029,0.017,-0.024,-0.009,101.0,99.0,101.0,13.4,1505.2,329.7,-0.7,1.9,2470.546,13.28,0.029,144.7
2021-05-24T05:19:03,42.805,6.029,0.009,-0.047,0.006,101.0,100.0,99.0,13.4,1505.2,327.0,-0.7,1.8,2470.537,13.28,0.047,169.2
2021-05-24T05:22:03,42.805,6.029,-0.01,-0.005,-0.006,100.0,100.0,100.0,13.4,1505.2,327.8,-0.7,1.8,2470.575,13.28,0.011,243.4
2021-05-24T05:25:03,42.805,6.029,0.013,-0.026,-0.01,100.0,100.0,99.0,13.3,1505.2,327.4,-0.7,1.8,2470.526,13.28,0.029,153.4
2021-05-24T05:28:03,42.805,6.029,0.025,-0.01,0.0,100.0,101.0,100.0,13.4,1505.2,327.0,-0.8,1.8,2470.524,13.28,0.026,111.8
2021-05-24T05:31:03,42.805,6.029,0.019,-0.031,-0.016,101.0,99.0,100.0,13.4,1505.2,328.4,-0.8,1.8,2470.514,13.28,0.036,148.5
2021-05-24T05:34:03,42.805,6.029,0.026,-0.006,-0.028,100.0,99.0,99.0,13.4,1505.2,326.2,-0.8,1.8,2470.527,13.28,0.026,103.0
2021-05-24T05:37:03,42.805,6.029,0.033,-0.02,0.013,98.0,102.0,100.0,13.4,1505.2,324.4,-0.7,1.8,2470.574,13.28,0.038,121.2
2021-05-24T05:40:03,42.805,6.029,-0.002,-0.021,0.005,102.0,100.0,99.0,13.3,1505.2,324.2,-0.7,1.8,2470.518,13.28,0.021,185.4
2021-05-24T05:43:03,42.805,6.029,0.025,-0.035,-0.026,100.0,101.0,100.0,13.4,1505.2,327.1,-0.8,1.8,2470.524,13.28,0.043,144.5
2021-05-24T05:46:03,42.805,6.029,0.007,-0.018,0.0,100.0,101.0,100.0,13.4,1505.2,328.3,-0.7,1.8,2470.527,13.28,0.019,158.8
2021-05-24T05:49:03,42.805,6.029,0.001,-0.009,0.013,100.0,102.0,99.0,13.4,1505.2,325.6,-0.8,1.8,2470.574,13.28,0.009,173.7
2021-05-24T05:52:03,42.805,6.029,-0.009,-0.027,-0.026,97.0,101.0,100.0,13.4,1505.2,329.5,-0.7,1.8,2470.586,13.28,0.028,198.4
2021-05-24T05:55:03,42.805,6.029,0.014,-0.015,-0.007,101.0,100.0,99.0,13.3,1505.2,324.6,-0.7,1.8,2470.514,13.28,0.02,137.0
2021-05-24T05:58:03,42.805,6.029,0.004,-0.03,0.009,100.0,99.0,100.0,13.4,1505.2,328.5,-0.7,1.8,2470.498,13.28,0.03,172.4
2021-05-24T06:04:03,42.805,6.029,-0.013,-0.016,-0.009,100.0,100.0,99.0,13.4,1505.2,328.6,-0.8,1.8,2470.512,13.28,0.02,219.1
2021-05-24T06:07:03,42.805,6.029,0.003,-0.018,0.042,101.0,99.0,100.0,13.4,1505.2,327.9,-0.7,1.8,2470.521,13.28,0.018,170.5
2021-05-24T06:10:03,42.805,6.029,0.01,-0.02,-0.003,101.0,100.0,99.0,13.3,1505.2,325.3,-0.8,1.8,2470.558,13.28,0.022,153.4
2021-05-24T06:13:03,42.805,6.029,-0.003,-0.013,-0.001,100.0,100.0,100.0,13.3,1505.2,326.7,-0.7,1.8,2470.562,13.28,0.013,193.0
2021-05-24T06:16:03,42.805,6.029,0.007,-0.02,0.014,101.0,99.0,99.0,13.4,1505.2,325.5,-0.7,1.8,2470.5,13.28,0.021,160.7
2021-05-24T06:19:03,42.805,6.029,0.012,-0.022,-0.009,100.0,103.0,98.0,13.4,1505.2,329.8,-0.7,1.8,2470.586,13.28,0.025,151.4
2021-05-24T06:22:03,42.805,6.029,0.001,-0.035,-0.027,102.0,100.0,99.0,13.4,1505.2,327.6,-0.8,1.8,2470.491,13.28,0.035,178.4
2021-05-24T06:25:03,42.805,6.029,0.023,-0.037,-0.024,100.0,100.0,99.0,13.4,1505.2,326.6,-0.7,1.8,2470.576,13.28,0.043,148.1
2021-05-24T06:28:03,42.805,6.029,-0.001,-0.031,-0.042,100.0,100.0,100.0,13.4,1505.2,325.3,-0.7,1.9,2470.518,13.28,0.031,181.8
2021-05-24T06:31:03,42.805,6.029,0.005,-0.034,0.001,101.0,100.0,100.0,13.4,1505.2,329.2,-0.7,1.8,2470.535,13.28,0.034,171.6
2021-05-24T06:34:03,42.805,6.029,0.008,-0.011,-0.031,100.0,99.0,100.0,13.4,1505.2,328.5,-0.7,1.8,2470.516,13.28,0.013,144.0
2021-05-24T06:37:03,42.805,6.029,0.02,-0.048,-0.037,99.0,99.0,101.0,13.4,1505.2,324.4,-0.7,1.8,2470.523,13.28,0.052,157.4
2021-05-24T06:40:03,42.805,6.029,0.005,-0.024,0.021,99.0,103.0,100.0,13.4,1505.2,328.3,-0.7,1.8,2470.529,13.28,0.024,168.2
2021-05-24T06:43:03,42.805,6.029,-0.003,-0.017,0.011,101.0,99.0,100.0,13.4,1505.2,327.8,-0.7,1.8,2470.496,13.28,0.017,190.0
2021-05-24T06:46:03,42.805,6.029,0.002,-0.034,-0.03,101.0,98.0,101.0,13.4,1505.2,327.3,-0.7,1.8,2470.49,13.28,0.034,176.6
2021-05-24T06:49:03,42.805,6.029,0.004,-0.032,-0.009,100.0,103.0,100.0,13.4,1505.2,328.4,-0.7,1.8,2470.508,13.28,0.032,172.9
2021-05-24T06:52:03,42.805,6.029,-0.009,-0.029,-0.005,102.0,100.0,99.0,13.4,1505.2,327.9,-0.8,1.8,2470.557,13.28,0.03,197.2
2021-05-24T06:55:03,42.805,6.029,-0.002,-0.022,0.0,99.0,100.0,100.0,13.4,1505.2,327.8,-0.8,1.8,2470.516,13.28,0.022,185.2
2021-05-24T06:58:03,42.805,6.029,0.018,-0.017,0.002,99.0,100.0,100.0,13.4,1505.2,326.3,-0.7,1.8,2470.521,13.28,0.024,133.4
2021-05-24T07:04:03,42.805,6.029,0.006,-0.003,0.002,101.0,100.0,99.0,13.3,1505.2,324.9,-0.7,1.8,2470.509,13.28,0.006,116.6
2021-05-24T07:07:03,42.805,6.029,0.0,-0.02,-0.025,101.0,100.0,100.0,13.4,1505.2,325.3,-0.8,1.8,2470.517,13.28,0.02,180.0
2021-05-24T07:10:03,42.805,6.029,0.017,-0.022,0.002,100.0,98.0,101.0,13.4,1505.2,327.2,-0.8,1.8,2470.494,13.28,0.027,142.3
2021-05-24T07:13:03,42.805,6.029,0.004,-0.042,-0.044,100.0,100.0,100.0,13.4,1505.2,326.2,-0.7,1.8,2470.494,13.28,0.042,174.6
2021-05-24T07:16:03,42.805,6.029,-0.007,-0.024,-0.016,100.0,100.0,99.0,13.4,1505.2,326.0,-0.8,1.9,2470.518,13.28,0.025,196.3
2021-05-24T07:19:03,42.805,6.029,-0.007,-0.015,0.003,101.0,101.0,100.0,13.3,1505.2,326.7,-0.8,1.8,2470.532,13.28,0.016,205.0
2021-05-24T07:22:03,42.805,6.029,-0.003,-0.023,-0.005,101.0,100.0,101.0,13.3,1505.2,325.1,-0.8,1.8,2470.504,13.28,0.023,187.4
2021-05-24T07:25:03,42.805,6.029,0.0,-0.025,0.026,101.0,99.0,101.0,13.4,1505.2,325.9,-0.7,1.8,2470.507,13.28,0.025,180.0
2021-05-24T07:28:03,42.805,6.029,0.025,-0.029,-0.007,100.0,102.0,100.0,13.4,1505.2,329.2,-0.8,1.8,2470.507,13.28,0.038,139.2
2021-05-24T07:31:03,42.805,6.029,0.013,-0.008,0.032,101.0,100.0,100.0,13.4,1505.2,324.7,-0.7,1.8,2470.495,13.28,0.015,121.6
2021-05-24T07:34:03,42.805,6.029,0.018,-0.028,-0.01,101.0,100.0,100.0,13.4,1505.2,327.9,-0.7,1.8,2470.52,13.28,0.033,147.3
2021-05-24T07:37:03,42.805,6.029,0.025,-0.032,-0.004,100.0,101.0,100.0,13.3,1505.2,329.5,-0.7,1.8,2470.476,13.28,0.04,142.0
2021-05-24T07:40:03,42.805,6.029,-0.011,-0.011,-0.011,100.0,101.0,99.0,13.4,1505.2,324.7,-0.7,1.8,2470.502,13.28,0.015,225.0
2021-05-24T07:43:03,42.805,6.029,0.006,-0.019,-0.016,100.0,100.0,99.0,13.4,1505.2,327.5,-0.8,1.8,2470.453,13.28,0.019,162.5
2021-05-24T07:46:03,42.805,6.029,0.006,-0.013,-0.035,100.0,100.0,100.0,13.3,1505.2,327.5,-0.8,1.8,2470.496,13.28,0.014,155.2
2021-05-24T07:49:03,42.805,6.029,0.024,-0.035,-0.002,101.0,99.0,101.0,13.4,1505.2,325.3,-0.8,1.8,2470.448,13.28,0.042,145.6
2021-05-24T07:52:03,42.805,6.029,0.026,-0.024,-0.003,102.0,100.0,100.0,13.3,1505.2,326.4,-0.8,1.9,2470.479,13.28,0.035,132.7
2021-05-24T07:55:03,42.805,6.029,0.01,-0.012,0.021,102.0,103.0,100.0,13.4,1505.2,326.4,-0.8,1.8,2470.521,13.28,0.015,140.2
2021-05-24T07:58:03,42.805,6.029,0.015,-0.04,-0.019,100.0,101.0,100.0,13.4,1505.2,324.4,-0.7,1.8,2470.444,13.28,0.042,159.4
2021-05-24T08:04:03,42.805,6.029,-0.024,-0.011,-0.017,100.0,100.0,100.0,13.4,1505.2,327.8,-0.8,1.8,2470.459,13.28,0.026,245.4
2021-05-24T08:07:03,42.805,6.029,0.0,-0.03,0.002,100.0,101.0,100.0,13.4,1505.2,326.6,-0.8,1.9,2470.44,13.28,0.03,180.0
2021-05-24T08:10:03,42.805,6.029,-0.003,-0.049,-0.053,102.0,100.0,100.0,13.4,1505.2,324.8,-0.8,1.8,2470.445,13.28,0.049,183.5
2021-05-24T08:13:03,42.805,6.029,0.021,-0.011,-0.008,100.0,100.0,100.0,13.4,1505.2,327.9,-0.8,1.8,2470.456,13.28,0.023,117.6
2021-05-24T08:16:03,42.805,6.029,0.025,-0.029,-0.02,100.0,100.0,100.0,13.3,1505.2,327.4,-0.7,1.8,2470.461,13.28,0.038,139.2
2021-05-24T08:19:03,42.805,6.029,0.012,-0.025,0.011,102.0,100.0,101.0,13.3,1505.2,329.1,-0.8,1.8,2470.455,13.28,0.027,154.4
2021-05-24T08:22:03,42.805,6.029,-0.009,-0.023,-0.027,100.0,101.0,100.0,13.4,1505.2,327.6,-0.7,1.8,2470.462,13.28,0.024,201.4
2021-05-24T08:25:03,42.805,6.029,0.03,-0.037,0.021,100.0,102.0,99.0,13.4,1505.2,328.9,-0.8,1.8,2470.489,13.28,0.047,141.0
2021-05-24T08:28:03,42.805,6.029,0.014,-0.027,-0.005,101.0,100.0,99.0,13.3,1505.2,325.7,-0.8,1.8,2470.451,13.28,0.03,152.6
2021-05-24T08:31:03,42.805,6.029,-0.006,-0.023,-0.04,99.0,100.0,101.0,13.4,1505.2,327.9,-0.8,1.8,2470.478,13.28,0.023,194.6
2021-05-24T08:34:03,42.805,6.029,0.011,-0.007,0.024,101.0,101.0,100.0,13.3,1505.2,327.5,-0.8,1.8,2470.453,13.28,0.013,122.5
2021-05-24T08:37:03,42.805,6.029,0.014,-0.035,0.015,101.0,100.0,100.0,13.4,1505.2,327.2,-0.7,1.8,2470.436,13.28,0.037,158.2
2021-05-24T08:40:03,42.805,6.029,0.01,-0.032,-0.031,100.0,100.0,99.0,13.4,1505.2,327.0,-0.8,1.8,2470.429,13.28,0.033,162.6
2021-05-24T08:43:03,42.805,6.029,0.016,-0.012,0.006,99.0,100.0,101.0,13.3,1505.2,326.3,-0.8,1.8,2470.414,13.28,0.02,126.9
2021-05-24T08:46:03,42.805,6.029,0.024,-0.024,-0.004,100.0,100.0,100.0,13.4,1505.2,326.3,-0.7,1.8,2470.413,13.28,0.033,135.0
2021-05-24T08:49:03,42.805,6.029,0.02,-0.011,-0.015,101.0,101.0,100.0,13.4,1505.2,328.1,-0.7,1.8,2470.448,13.28,0.022,118.8
2021-05-24T08:52:03,42.805,6.029,0.027,-0.04,0.0,101.0,101.0,100.0,13.4,1505.2,326.3,-0.8,1.8,2470.424,13.28,0.048,146.0
2021-05-24T08:55:03,42.805,6.029,0.019,-0.006,0.017,100.0,101.0,100.0,13.4,1505.2,326.5,-0.8,1.8,2470.388,13.28,0.019,107.5
2021-05-24T08:58:03,42.805,6.029,0.003,-0.03,-0.012,100.0,101.0,99.0,13.4,1505.2,327.9,-0.8,1.8,2470.432,13.28,0.03,174.3
2021-05-24T09:04:03,42.805,6.029,0.01,-0.022,-0.01,100.0,100.0,102.0,13.3,1505.2,327.2,-0.8,1.9,2470.436,13.28,0.024,155.6
2021-05-24T09:07:03,42.805,6.029,-0.003,-0.023,0.008,103.0,104.0,99.0,13.3,1505.2,327.4,-0.8,1.8,2470.439,13.28,0.023,187.4
2021-05-24T09:10:03,42.805,6.029,0.018,-0.018,0.022,102.0,101.0,100.0,13.4,1505.2,324.5,-0.8,1.8,2470.407,13.28,0.025,135.0
2021-05-24T09:13:03,42.805,6.029,-0.007,-0.04,-0.036,102.0,99.0,100.0,13.4,1505.2,325.9,-0.7,1.8,2470.384,13.28,0.04,189.9
2021-05-24T09:16:03,42.805,6.029,0.01,-0.018,0.012,103.0,102.0,102.0,13.4,1505.2,329.4,-0.7,1.8,2470.428,13.28,0.02,150.9
2021-05-24T09:19:03,42.805,6.029,0.01,-0.042,0.0,102.0,101.0,100.0,13.4,1505.2,325.7,-0.8,1.8,2470.38,13.28,0.043,166.6
2021-05-24T09:22:03,42.805,6.029,-0.016,-0.02,-0.016,102.0,102.0,101.0,13.4,1505.2,325.7,-0.7,1.8,2470.404,13.28,0.025,218.7
2021-05-24T09:25:03,42.805,6.029,0.015,-0.024,-0.025,101.0,102.0,100.0,13.4,1505.2,329.9,-0.8,1.8,2470.364,13.28,0.028,148.0
2021-05-24T09:28:03,42.805,6.029,0.0,-0.019,0.007,100.0,102.0,99.0,13.3,1505.2,324.6,-0.7,1.8,2470.437,13.28,0.019,180.0
2021-05-24T09:31:03,42.805,6.029,-0.005,-0.021,-0.006,103.0,101.0,101.0,13.4,1505.2,324.9,-0.8,1.8,2470.374,13.28,0.021,193.4
2021-05-24T09:34:03,42.805,6.029,-0.011,-0.023,0.003,100.0,101.0,101.0,13.4,1505.2,325.6,-0.8,1.8,2470.394,13.28,0.025,205.6
2021-05-24T09:37:03,42.805,6.029,0.031,-0.015,-0.001,101.0,102.0,101.0,13.4,1505.2,326.6,-0.8,1.8,2470.428,13.28,0.034,115.8
2021-05-24T09:40:03,42.805,6.029,0.008,-0.027,-0.006,101.0,99.0,101.0,13.4,1505.2,326.0,-0.8,1.8,2470.346,13.28,0.028,163.5
2021-05-24T09:43:03,42.805,6.029,0.0,-0.01,0.004,102.0,100.0,100.0,13.4,1505.2,326.5,-0.7,1.8,2470.372,13.28,0.01,180.0
2021-05-24T09:46:03,42.805,6.029,0.01,-0.035,-0.016,102.0,100.0,101.0,13.4,1505.2,327.3,-0.8,1.8,2470.386,13.28,0.036,164.1
2021-05-24T09:49:03,42.805,6.029,-0.01,-0.009,-0.032,101.0,101.0,101.0,13.4,1505.2,329.4,-0.7,1.8,2470.35,13.28,0.013,228.0
2021-05-24T09:52:03,42.805,6.029,0.007,-0.036,-0.004,101.0,100.0,102.0,13.4,1505.2,325.7,-0.8,1.8,2470.325,13.28,0.036,169.0
2021-05-24T09:55:03,42.805,6.029,-0.005,-0.019,0.008,102.0,100.0,100.0,13.4,1505.2,326.8,-0.7,1.9,2470.359,13.28,0.019,194.7
2021-05-24T09:58:03,42.805,6.029,0.005,-0.032,-0.022,101.0,101.0,101.0,13.4,1505.2,326.1,-0.8,1.9,2470.369,13.28,0.032,171.1